Back to catalog

OPS 6577

VELA 5

AliveMilitaryHEO
NORAD 1458·PAYLOAD·🇺🇸 United States

Launched Jul 20, 1965 from Cape Canaveral Space Force Station

Loading…

Next Passes (next 24 hours)

TLE

FreshSource: Space-Track

Epoch: Sep 16, 2026, 01:33 UTC

1 01458U 65058A   26259.06465376 -.00001551  00000-0  00000-0 0  9996
2 01458  29.8808  13.7474 5147875 322.9927   0.3889  0.21473435 12248

Track OPS 6577 in real time with AllMySat

Download on the App Store